Weather in Vang Vieng

Laos     18°55′00″N   102°25′46″E
temp.,
°C
wind,
m/s
gust,
m/s
humid.,
%
clouds,
%
prec.,
mm/h
press.,
hPa
HPBL,
m
19 january, tue
tue1901:00+13ne11849 0.0 101723
04:00+11n01932 0.0 101722
07:00+10nne11951 0.0 101823
10:00+20sw11540 0.0 1018650
13:00+24ssw21400 0.0 10141251
16:00+23ssw22400 0.0 10101166
19:00+15ne11680 0.0 101223
22:00+13ne11730 0.0 101524
20 january, wed
wed2001:00+13nne12750 0.0 101527
04:00+12nne11770 0.0 101524
07:00+11ne11800 0.0 101623
10:00+21ssw11430 0.0 1016701
13:00+25ssw22350 0.0 10121373
16:00+24ssw12370 0.0 10091349
19:00+16ne11620 0.0 101123
22:00+15ne12670 0.0 101428
21 january, thu
thu2101:00+14nne11690 0.0 101425
04:00+13nne12690 0.0 101327
07:00+13nne12690 0.0 101525
10:00+24ssw11400 0.0 1015724
13:00+26ssw21340 0.0 10111709
16:00+26ssw113513 0.0 10081497
19:00+17ne116130 0.0 101023
22:00+16ne12660 0.0 101228
22 january, fri
fri2201:00+15nne12660 0.0 101228
04:00+15nne12670 0.0 101231
07:00+14nne12680 0.0 101427
10:00+24ssw11400 0.0 1014672
13:00+27sw22320 0.0 10102101
16:00+27ssw22330 0.0 10071867
19:00+19nne11550 0.0 100923
22:00+17ne12610 0.0 101227
23 january, sat
sat2301:00+16nne12612 0.0 101229
04:00+16nne12620 0.0 101227
07:00+15ne12646 0.0 101325
10:00+25ssw11370 0.0 1014671
13:00+28ssw22310 0.0 10102061
16:00+27ssw12300 0.0 10072011
19:00+19ne12530 0.0 101024
22:00+17ne12570 0.0 101230